CZ-6A DEB, 54457

Orbit data source: Space-Track

CZ-6A DEB, 54457 is space debris in SSO originally from a launch on Fri, 11 Nov 2022 UTC launched from the Taiyaun Space Center, China (TSC). Debris objects in space refer to the collection of defunct objects orbiting the Earth. Examples of debris include non-operational satellites, rocket bodies, and fragments generated from explosions, collisions, or faulty payload assembly.

Loading next visibility...
Identifier
54457, 2022-151GH
Orbit
SSO
Country
Flag of CNCN / PRC
Related business
Manufacturer
SAST
Mission
Spacecraft
Bus & Motor
Unknown
Mass
Unknown
Launch date (UTC)
2022-11-11 (4 years ago)
Launch vehicle
Unknown
Launch site
Taiyaun Space Center, China (TSC)
Object type
Payload
Rocket body
Debris
Shape & HBR
Unknown shape, 0.1 m
Radar Cross Section
Medium (>0.1 m² and <1 m²)

Expand to show TLE details & history
Last TLE update: 3 days ago

TLE from 3 days ago
0 CZ-6A DEB
1 54457U 22151GH  26170.72821898  .00002892  00000-0  10016-2 0  9998
2 54457  98.8784 227.8701 0083769 123.3346 237.5893 14.34481263187507
Epoch: 2026-06-19T17:28Z
TLE epoch observation values (Epoch: 2026-06-19T17:28:38.119Z)
Latitude
-0.00008°
Longitude
57.75825°
Altitude
812.207 km
Speed
7.43 km/s
True Right ascension
15h 11m 28s
True Declination
0° 00' 00"
Sunlit
Object was in full shadow at epoch
Visualization orbit readout
Latitude
Unknown
Longitude
Unknown
Altitude
Unknown
Speed
Unknown
Apparent Right ascension
Unknown
Apparent Declination
Unknown
Sunlit
N/A
Visualization observer readout
Local Sidereal Time
21:33:01
Azimuth
Unknown
Elevation
Unknown
Doppler factor
Unknown
Orbital elements
Apogee altitude
833.85 km
Perigee altitude
714.026 km
Semi-major axis
7,152.075 km
Eccentricity
0.00838
Inclination
98.8784°
RAAN
227.8701°
Arg. of periapsis
123.3346°
True anomaly
236.78346°
Mean anomaly
237.5893°
Eccentric anomaly
237.18592°
Mean motion
3.58835 °/min
Orbital period
100.32 mins
BSTAR
0.0010016
Loading maneuver chart data...
Computing Atmospheric mass density...
Loading historical data...
Loading historical data...
Loading historical data...
Loading historical data...
Loading historical data...
Loading historical data...
Loading historical data...

Documentation

Showing up to 5 results
|